Погода в Быстрягах

Россия / Кировская область     58°19′44″N   48°44′18″E
темп.,
°C
ветер,
м/с
пор.,
м/с
влажн.,
%
обл.,
%
осадки,
мм/ч
давл.,
гПа
погр.,
м
11 апреля, вс
вс1100:000зюз119695 0.0 102725
03:000сз119387 0.0 102854
06:000з119278 0.0 1028268
09:00+3з22886 0.0 1029305
12:00+7зюз24744 0.0 1029527
15:00+8зюз35755 0.0 1030671
18:00+5ююз2496100 0.0 103283
21:00+1зюз2599100 0.0 103481
12 апреля, пн
пн1200:00+1ююз2499100 0.0 103595
03:00+2юз12100100 0.0 103744
06:00+1всв1110088 0.0 103936
09:00+6всв12845 0.0 1039239
12:00+10всв11688 0.0 1039823
15:00+11вюв126392 0.0 10391127
18:00+7юв2590100 0.0 1039113
21:00+3юв2694100 0.0 1039112
13 апреля, вт
вт1300:00+3юв2695100 0.0 1038112
03:00+2юв279594 0.0 1037123
06:00+4ююв31091100 0.0 1036258
09:00+9ю4879100 0.0 1034403
12:00+13ю477362 0.0 1032619
15:00+14ююз487398 0.0 1031703
18:00+12ю3988100 0.0 1030336
21:00+10ю31194100 0.0 1030253
14 апреля, ср
ср1400:00+8ю3994100 0.0 1029197
03:00+6ю3893100 0.0 1029152
06:00+6ю388879 0.0 1028165
09:00+12ююз376531 0.0 1028357
12:00+16ююз475088 0.0 1026809
15:00+17ююз464664 0.0 10251168
18:00+13ююз386199 0.0 1024190
21:00+9ююз387546 0.0 1024136
15 апреля, чт
чт1500:00+7ююз388387 0.0 1023136
03:00+6ююз278699 0.0 1022115
06:00+7ююз2783100 0.0 1021151
09:00+12юз3560100 0.0 1020353
12:00+15юз355098 0.0 1019731
15:00+17юз3443100 0.0 10181493
18:00+13ююз225865 0.0 101619
21:00+9ссв4986100 0.0 1017338